Weather History for KMWM - August, 2013

Change the Weather History Date:

Wednesday, August 14, 2013

  Actual Average Record
Temperature  
Mean Temperature 60 °F -  
Max Temperature 73 °F 81 °F 98 °F (1965)
Min Temperature 46 °F 58 °F 42 °F (1999)
Degree Days  
Heating Degree Days 6    
Growing Degree Days 10 (Base 50)    
Moisture  
Dew Point 52 °F    
Average Humidity 70    
Maximum Humidity 100    
Minimum Humidity 44    
Precipitation  
Precipitation 0.00 in - - ()
Sea Level Pressure  
Sea Level Pressure 30.19 in    
Wind  
Wind Speed 2 mph (SSW)    
Max Wind Speed 9 mph    
Max Gust Speed -    
Visibility 10 miles    
Events      
Averages and records for this station are not official NWS values.
T = Trace of Precipitation, MM = Missing Value Source: NWS Daily Summary

Daily Weather History Graph

Daily Weather History Graph

Search for Another Location

Airport or City:

Trip Planner

Search our weather history database for the weather conditions in past years. The results will help you decide how hot, cold, wet, or windy it might be!

Date:

Astronomy

Aug. 14, 2013 Rise Set
Actual Time 6:23 AM CDT 8:25 PM CDT
Civil Twilight 5:52 AM CDT 8:56 PM CDT
Nautical Twilight 5:13 AM CDT 9:35 PM CDT
Astronomical Twilight 4:31 AM CDT 10:17 PM CDT
Moon 2:41 PM CDT (8/14) No Moon Set
Length of Visible Light 15h 04m
Length of Day
14h 02m
First Quarter, 53% of the Moon is Illuminated
Aug 14
First Quarter
Aug 20
Full
Aug 28
Last Quarter
Sep 5
New
Sep 12
First Quarter

Hourly Weather History & Observations

Time (CDT) Temp. Dew Point Humidity Pressure Visibility Wind Dir Wind Speed Gust Speed Precip Events Conditions
12:12 AM 53.6 °F 51.8 °F 94% 30.22 in 10.0 mi Calm Calm - N/A   Clear
12:33 AM - - N/A% 30.22 in 10.0 mi Calm Calm - N/A   Clear
12:52 AM 53.6 °F 51.8 °F 94% 30.22 in 10.0 mi Calm Calm - N/A   Clear
1:12 AM 53.6 °F 51.8 °F 94% 30.22 in 10.0 mi Calm Calm - N/A   Clear
1:33 AM 51.8 °F 50.0 °F 94% 30.21 in - Calm Calm - N/A   Clear
1:51 AM 51.8 °F 51.8 °F 100% 30.21 in 10.0 mi Calm Calm - N/A   Clear
2:12 AM 51.8 °F 48.2 °F 88% 30.21 in 10.0 mi Calm Calm - N/A   Clear
2:32 AM 51.8 °F 50.0 °F 94% 30.22 in 0.8 mi Calm Calm - N/A   Mist
2:53 AM 51.8 °F 48.2 °F 88% 30.22 in 10.0 mi Calm Calm - N/A   Clear
3:12 AM 50.0 °F 48.2 °F 94% 30.22 in 10.0 mi Calm Calm - N/A   Clear
3:32 AM 50.0 °F 48.2 °F 94% 30.21 in 10.0 mi Calm Calm - N/A   Clear
3:52 AM 51.8 °F 48.2 °F 88% 30.21 in 10.0 mi Calm Calm - N/A   Clear
4:12 AM 51.8 °F 48.2 °F 88% 30.21 in 10.0 mi Calm Calm - N/A   Clear
4:33 AM 51.8 °F 48.2 °F 88% 30.21 in 10.0 mi Calm Calm - N/A   Clear
4:52 AM 48.2 °F 46.4 °F 93% 30.21 in 10.0 mi Calm Calm - N/A   Clear
5:12 AM 48.2 °F 46.4 °F 93% 30.21 in 10.0 mi Calm Calm - N/A   Clear
5:33 AM 48.2 °F 46.4 °F 93% 30.21 in 10.0 mi Calm Calm - N/A   Clear
5:52 AM 48.2 °F 46.4 °F 93% 30.21 in 10.0 mi Calm Calm - N/A   Clear
6:12 AM 46.4 °F 46.4 °F 100% 30.22 in 10.0 mi Calm Calm - N/A   Clear
6:33 AM 48.2 °F 46.4 °F 93% 30.22 in 10.0 mi Calm Calm - N/A   Clear
6:52 AM 48.2 °F 46.4 °F 93% 30.22 in 10.0 mi Calm Calm - N/A   Clear
7:12 AM 51.8 °F 48.2 °F 88% 30.22 in 10.0 mi Calm Calm - N/A   Clear
7:33 AM 53.6 °F 51.8 °F 94% 30.22 in 10.0 mi Calm Calm - N/A   Clear
7:53 AM 57.2 °F 51.8 °F 82% 30.22 in 10.0 mi SSW 3.5 mph - N/A   Clear
8:12 AM 59.0 °F 51.8 °F 77% 30.22 in 10.0 mi SSW 3.5 mph - N/A   Clear
8:33 AM 60.8 °F 53.6 °F 77% 30.22 in 10.0 mi Calm Calm - N/A   Clear
8:52 AM 62.6 °F 53.6 °F 72% 30.22 in 10.0 mi SSW 4.6 mph - N/A   Clear
9:12 AM 64.4 °F 53.6 °F 68% 30.22 in 10.0 mi South 5.8 mph - N/A   Clear
9:33 AM 66.2 °F 53.6 °F 64% 30.22 in 10.0 mi South 4.6 mph - N/A   Clear
9:52 AM 66.2 °F 53.6 °F 64% 30.23 in 10.0 mi South 4.6 mph - N/A   Clear
10:12 AM 68.0 °F 51.8 °F 56% 30.23 in 10.0 mi South 5.8 mph - N/A   Clear
10:33 AM 69.8 °F 51.8 °F 53% 30.22 in 10.0 mi SSW 6.9 mph - N/A   Clear
10:52 AM 69.8 °F 51.8 °F 53% 30.22 in 10.0 mi South 8.1 mph - N/A   Clear
11:12 AM 71.6 °F 51.8 °F 50% 30.22 in 10.0 mi South 5.8 mph - N/A   Clear
11:33 AM 71.6 °F 51.8 °F 50% 30.22 in 10.0 mi SW 3.5 mph - N/A   Scattered Clouds
11:52 AM 71.6 °F 51.8 °F 50% 30.22 in 10.0 mi SSW 8.1 mph - N/A   Scattered Clouds
12:12 PM 71.6 °F 50.0 °F 46% 30.21 in 10.0 mi South 5.8 mph - N/A   Scattered Clouds
12:33 PM 71.6 °F 50.0 °F 46% 30.20 in 10.0 mi SSW 5.8 mph - N/A   Scattered Clouds
12:52 PM 73.4 °F 50.0 °F 44% 30.20 in 10.0 mi SSE 8.1 mph - N/A   Scattered Clouds
1:12 PM 71.6 °F 50.0 °F 46% 30.20 in 10.0 mi SSW 4.6 mph - N/A   Scattered Clouds
1:33 PM 71.6 °F 51.8 °F 50% 30.19 in 10.0 mi SSW 5.8 mph - N/A   Scattered Clouds
1:52 PM 73.4 °F 51.8 °F 47% 30.18 in 10.0 mi SW 3.5 mph - N/A   Scattered Clouds
2:52 PM 71.6 °F 51.8 °F 50% 30.18 in 10.0 mi SSW 6.9 mph - N/A   Scattered Clouds
3:13 PM 73.4 °F 51.8 °F 47% 30.17 in 10.0 mi SSE 3.5 mph - N/A   Scattered Clouds
3:32 PM 73.4 °F 51.8 °F 47% 30.17 in 10.0 mi South 4.6 mph - N/A   Scattered Clouds
3:52 PM 73.4 °F 51.8 °F 47% 30.16 in 10.0 mi South 8.1 mph - N/A   Scattered Clouds
4:13 PM 73.4 °F 53.6 °F 50% 30.16 in 10.0 mi SSW 9.2 mph - N/A   Scattered Clouds
4:32 PM 73.4 °F 51.8 °F 47% 30.16 in 10.0 mi SSW 9.2 mph - N/A   Scattered Clouds
4:52 PM 73.4 °F 50.0 °F 44% 30.15 in 10.0 mi SSW 8.1 mph - N/A   Clear
5:13 PM 73.4 °F 51.8 °F 47% 30.15 in 10.0 mi South 6.9 mph - N/A   Clear
5:32 PM 73.4 °F 53.6 °F 50% 30.14 in 10.0 mi SSW 6.9 mph - N/A   Clear
5:52 PM 71.6 °F 53.6 °F 53% 30.14 in 10.0 mi SW 5.8 mph - N/A   Clear
6:13 PM 73.4 °F 53.6 °F 50% 30.14 in 10.0 mi SSW 5.8 mph - N/A   Clear
6:32 PM 71.6 °F 53.6 °F 53% 30.13 in 10.0 mi SSW 3.5 mph - N/A   Scattered Clouds
6:52 PM 71.6 °F 51.8 °F 50% 30.13 in 10.0 mi Calm Calm - N/A   Clear
7:13 PM 69.8 °F 53.6 °F 56% 30.13 in 10.0 mi Calm Calm - N/A   Clear
7:32 PM 69.8 °F 53.6 °F 56% 30.13 in 10.0 mi Calm Calm - N/A   Clear
7:53 PM 69.8 °F 53.6 °F 56% 30.13 in 10.0 mi Calm Calm - N/A   Clear
8:13 PM 68.0 °F 55.4 °F 64% 30.13 in 10.0 mi Calm Calm - N/A   Clear
8:32 PM 66.2 °F 53.6 °F 64% 30.13 in 10.0 mi SSE 5.8 mph - N/A   Clear
8:53 PM 64.4 °F 55.4 °F 73% 30.13 in 10.0 mi SSE 4.6 mph - N/A   Scattered Clouds
9:13 PM 66.2 °F 57.2 °F 73% 30.13 in 10.0 mi Calm Calm - N/A   Scattered Clouds
9:32 PM 64.4 °F 57.2 °F 77% 30.13 in 10.0 mi Calm Calm - N/A   Clear
9:52 PM 64.4 °F 57.2 °F 77% 30.13 in 10.0 mi Calm Calm - N/A   Clear
10:13 PM 64.4 °F 57.2 °F 77% 30.14 in 10.0 mi Calm Calm - N/A   Clear
10:32 PM 62.6 °F 57.2 °F 82% 30.14 in 10.0 mi SW 3.5 mph - N/A   Clear
10:52 PM 62.6 °F 57.2 °F 82% 30.14 in 10.0 mi SSW 3.5 mph - N/A   Clear
11:12 PM 62.6 °F 57.2 °F 82% 30.14 in 10.0 mi Calm Calm - N/A   Scattered Clouds
11:32 PM 60.8 °F 55.4 °F 82% 30.14 in 10.0 mi Calm Calm - N/A   Scattered Clouds
11:53 PM 59.0 °F 55.4 °F 88% 30.15 in 10.0 mi Calm Calm - N/A   Clear